Terminal Aerodrome Forecast
Issued by NWS Grand Rapids, MI

Home | Current Version | Previous Version | Text Only | Print | Product List | Glossary On
Versions: 1 2 3 4 5 6 7 8 9 10 11 12 13 14 15 16 17 18 19 20 21
000
FTUS43 KGRR 220540
TAFGRR
TAF
KGRR 220540Z 2206/2306 17004KT 1/4SM FG VV002
     FM220900 18004KT 2SM BR OVC010
     FM221500 22010KT 4SM BR OVC015
     FM221900 21015G25KT P6SM SCT080
     FM230000 20007KT P6SM SCT200=

USA.gov is the U.S. government's official web portal to all federal, state and local government web resources and services.